Location: Boulin
(43.2500°N, 0.1333°E)
Time: 05:08:08
(UTC+00:00)

Cosmos 1933 - Pass Details

Date: 18 March 2026
Orbit: 507 x 515 km, 82.5° (Epoch: 15 April)

Event Time Altitude Azimuth Distance (km) Brightness Sun altitude
Rises 04:00:11 0° 156° (SSE) 2,619 6.8 -23.3°
Reaches altitude 10° 04:02:37 10° 141° (SE) 1,737 6.0 -22.9°
Maximum altitude 04:05:36 22° 89° (E) 1,156 5.7 -22.4°
Drops below altitude 10° 04:08:36 10° 37° (NE) 1,746 6.7 -21.9°
Sets 04:11:04 0° 22° (NNE) 2,637 7.4 -21.5°
